DAL2416 KATL-CYUL

Flight info

Callsign DAL2416
Flight time 2h 8m
Altitude 37000
Route PLMMR3 BURGG CLAWD PSK PERRI Q103 EMNEM Q71 PSB J59 SYR ART IMPAC4
Aircraft A321/M-SDE3FGHIRWY/LB1

Departure

Time 2026-05-06 21:31
Airport Hartsfield Jackson Atlanta International Airport (KATL)

Arrival

Time 2026-05-06 23:40
Airport Montreal / Pierre Elliott Trudeau International Airport (CYUL)
Time Latitude Longitude Altitude Speed Heading
2026-05-06 20:51 33.64174 -84.43867 1036 ft 0 kts 270°
2026-05-06 21:17 33.64174 -84.43865 1036 ft 2 kts 270°
2026-05-06 21:17 33.64174 -84.43836 1036 ft 4 kts 275°
2026-05-06 21:17 33.64169 -84.43804 1036 ft 4 kts 295°
2026-05-06 21:17 33.64161 -84.43788 1036 ft 0 kts 315°
2026-05-06 21:21 33.64170 -84.43787 1036 ft 4 kts
2026-05-06 21:21 33.64234 -84.43786 1036 ft 13 kts 359°
2026-05-06 21:22 33.64325 -84.43788 1036 ft 12 kts 359°
2026-05-06 21:22 33.64408 -84.43785 1035 ft 11 kts 13°
2026-05-06 21:22 33.64453 -84.43721 1036 ft 10 kts 74°
2026-05-06 21:22 33.64459 -84.43641 1036 ft 9 kts 88°
2026-05-06 21:23 33.64459 -84.43561 1036 ft 13 kts 90°
2026-05-06 21:23 33.64459 -84.43456 1036 ft 12 kts 90°
2026-05-06 21:23 33.64459 -84.43360 1036 ft 11 kts 90°
2026-05-06 21:23 33.64459 -84.43274 1036 ft 11 kts 89°
2026-05-06 21:24 33.64460 -84.43146 1036 ft 20 kts 91°
2026-05-06 21:24 33.64460 -84.42971 1036 ft 21 kts 90°
2026-05-06 21:24 33.64460 -84.42804 1035 ft 19 kts 88°
2026-05-06 21:24 33.64470 -84.42650 1035 ft 18 kts 90°
2026-05-06 21:25 33.64469 -84.42505 1035 ft 17 kts 90°
2026-05-06 21:25 33.64469 -84.42369 1035 ft 16 kts 89°
2026-05-06 21:25 33.64480 -84.42246 1035 ft 14 kts 69°
2026-05-06 21:25 33.64526 -84.42147 1035 ft 13 kts 64°
2026-05-06 21:26 33.64542 -84.42044 1035 ft 12 kts 88°
2026-05-06 21:26 33.64543 -84.41950 1035 ft 11 kts 90°
2026-05-06 21:26 33.64543 -84.41824 1036 ft 20 kts 90°
2026-05-06 21:26 33.64543 -84.41652 1036 ft 20 kts 90°
2026-05-06 21:27 33.64542 -84.41487 1036 ft 19 kts 90°
2026-05-06 21:27 33.64542 -84.41331 1036 ft 18 kts 88°
2026-05-06 21:27 33.64543 -84.41188 1036 ft 17 kts 90°
2026-05-06 21:27 33.64543 -84.41055 1036 ft 15 kts 90°
2026-05-06 21:28 33.64542 -84.40930 1035 ft 14 kts 90°
2026-05-06 21:28 33.64555 -84.40817 1035 ft 13 kts 77°
2026-05-06 21:28 33.64570 -84.40684 1035 ft 16 kts 88°
2026-05-06 21:28 33.64576 -84.40590 1034 ft 10 kts 66°
2026-05-06 21:29 33.64637 -84.40571 1033 ft 10 kts
2026-05-06 21:29 33.64682 -84.40602 1033 ft 8 kts 278°
2026-05-06 21:29 33.64681 -84.40631 1033 ft 0 kts 268°
2026-05-06 21:30 33.64681 -84.40632 1033 ft 1 kts 268°
2026-05-06 21:30 33.64678 -84.40764 1034 ft 45 kts 270°
2026-05-06 21:30 33.64679 -84.41413 1039 ft 108 kts 270°
2026-05-06 21:31 33.64677 -84.42506 1037 ft 155 kts 270°
2026-05-06 21:31 33.64691 -84.43846 1527 ft 156 kts 266°
2026-05-06 21:31 33.64714 -84.45105 2294 ft 146 kts 266°
2026-05-06 21:31 33.64835 -84.46325 2886 ft 157 kts 282°
2026-05-06 21:32 33.65342 -84.47559 3339 ft 170 kts 289°
2026-05-06 21:32 33.66347 -84.50313 4157 ft 190 kts 285°
2026-05-06 21:32 33.66877 -84.51845 4429 ft 214 kts 288°
2026-05-06 21:33 33.67520 -84.53591 4781 ft 239 kts 289°
2026-05-06 21:33 33.68224 -84.55456 5288 ft 254 kts 289°
2026-05-06 21:33 33.69197 -84.57269 6089 ft 269 kts 313°
2026-05-06 21:33 33.70927 -84.58274 6893 ft 289 kts 344°
2026-05-06 21:34 33.72945 -84.58487 7755 ft 295 kts 352°
2026-05-06 21:34 33.75020 -84.58462 8586 ft 299 kts 355°
2026-05-06 21:34 33.77109 -84.58291 9339 ft 307 kts
2026-05-06 21:34 33.79109 -84.57227 10042 ft 326 kts 33°
2026-05-06 21:35 33.80620 -84.55130 10563 ft 345 kts 60°
2026-05-06 21:35 33.81309 -84.52327 10759 ft 367 kts 85°
2026-05-06 21:35 33.81499 -84.49176 10907 ft 389 kts 90°
2026-05-06 21:35 33.81504 -84.45850 11224 ft 404 kts 93°
2026-05-06 21:36 33.81425 -84.42446 11817 ft 410 kts 94°
2026-05-06 21:36 33.81339 -84.39009 12447 ft 414 kts 94°
2026-05-06 21:36 33.81288 -84.35523 13105 ft 419 kts 91°
2026-05-06 21:36 33.81606 -84.32016 13736 ft 425 kts 79°
2026-05-06 21:37 33.82257 -84.28525 14296 ft 430 kts 77°
2026-05-06 21:37 33.82915 -84.25043 14833 ft 435 kts 77°
2026-05-06 21:37 33.83584 -84.21478 15395 ft 439 kts 77°
2026-05-06 21:37 33.84250 -84.17877 15953 ft 443 kts 77°
2026-05-06 21:38 33.84912 -84.14239 16487 ft 447 kts 77°
2026-05-06 21:38 33.85570 -84.10574 17014 ft 451 kts 77°
2026-05-06 21:38 33.86232 -84.06865 17546 ft 455 kts 77°
2026-05-06 21:38 33.86899 -84.03120 18085 ft 459 kts 77°
2026-05-06 21:39 33.87574 -83.99347 18565 ft 463 kts 77°
2026-05-06 21:39 33.88246 -83.95595 18999 ft 467 kts 77°
2026-05-06 21:39 33.88943 -83.91764 19429 ft 470 kts 74°
2026-05-06 21:39 33.89961 -83.88020 19866 ft 471 kts 65°
2026-05-06 21:40 33.91227 -83.84370 20329 ft 474 kts 64°
2026-05-06 21:40 33.92503 -83.80706 20782 ft 477 kts 64°
2026-05-06 21:40 33.93796 -83.77002 21210 ft 481 kts 64°
2026-05-06 21:40 33.95189 -83.73335 21640 ft 481 kts 57°
2026-05-06 21:41 33.96974 -83.69946 22084 ft 479 kts 48°
2026-05-06 21:41 33.98974 -83.66709 22540 ft 482 kts 48°
2026-05-06 21:41 34.00950 -83.63505 22985 ft 485 kts 48°
2026-05-06 21:41 34.02968 -83.60224 23403 ft 489 kts 48°
2026-05-06 21:42 34.04996 -83.56918 23820 ft 492 kts 48°
2026-05-06 21:42 34.07037 -83.53588 24119 ft 496 kts 48°
2026-05-06 21:42 34.09087 -83.50239 24490 ft 498 kts 48°
2026-05-06 21:42 34.11145 -83.46869 24867 ft 500 kts 49°
2026-05-06 21:43 34.13182 -83.43528 25229 ft 502 kts 49°
2026-05-06 21:43 34.15255 -83.40125 25593 ft 504 kts 49°
2026-05-06 21:43 34.17339 -83.36707 25945 ft 506 kts 49°
2026-05-06 21:43 34.19432 -83.33273 26291 ft 509 kts 49°
2026-05-06 21:44 34.21533 -83.29822 26630 ft 511 kts 49°
2026-05-06 21:44 34.23636 -83.26361 26966 ft 513 kts 49°
2026-05-06 21:44 34.25754 -83.22867 27287 ft 515 kts 49°
2026-05-06 21:44 34.27876 -83.19364 27597 ft 518 kts 49°
2026-05-06 21:45 34.30005 -83.15854 27933 ft 520 kts 49°
2026-05-06 21:45 34.32132 -83.12358 28230 ft 523 kts 49°
2026-05-06 21:45 34.34296 -83.08820 28533 ft 525 kts 49°
2026-05-06 21:45 34.36477 -83.05264 28853 ft 527 kts 49°
2026-05-06 21:46 34.38659 -83.01709 29285 ft 525 kts 49°
2026-05-06 21:46 34.40833 -82.98159 29704 ft 524 kts 49°
2026-05-06 21:46 34.43001 -82.94609 30098 ft 524 kts 49°
2026-05-06 21:46 34.45166 -82.91058 30441 ft 523 kts 49°
2026-05-06 21:47 34.47319 -82.87520 30784 ft 523 kts 49°
2026-05-06 21:47 34.49475 -82.83975 31126 ft 522 kts 49°
2026-05-06 21:47 34.51602 -82.80477 31449 ft 522 kts 49°
2026-05-06 21:47 34.53753 -82.76929 31803 ft 523 kts 49°
2026-05-06 21:48 34.55907 -82.73374 32119 ft 523 kts 49°
2026-05-06 21:48 34.58062 -82.69815 32456 ft 523 kts 49°
2026-05-06 21:48 34.60215 -82.66256 32810 ft 523 kts 49°
2026-05-06 21:48 34.62368 -82.62699 33170 ft 523 kts 48°
2026-05-06 21:49 34.64521 -82.59141 33512 ft 523 kts 48°
2026-05-06 21:49 34.66673 -82.55581 33828 ft 523 kts 48°
2026-05-06 21:49 34.68783 -82.52058 34136 ft 523 kts 49°
2026-05-06 21:49 34.70904 -82.48463 34443 ft 524 kts 49°
2026-05-06 21:50 34.73015 -82.44850 34712 ft 524 kts 49°
2026-05-06 21:50 34.75122 -82.41225 34982 ft 525 kts 49°
2026-05-06 21:50 34.77228 -82.37599 35222 ft 527 kts 48°
2026-05-06 21:50 34.79355 -82.33950 35414 ft 530 kts 47°
2026-05-06 21:51 34.81492 -82.30291 35672 ft 531 kts 47°
2026-05-06 21:51 34.83633 -82.26628 35929 ft 531 kts 47°
2026-05-06 21:51 34.85774 -82.22959 36170 ft 532 kts 47°
2026-05-06 21:51 34.87889 -82.19333 36409 ft 532 kts 47°
2026-05-06 21:52 34.90033 -82.15656 36661 ft 533 kts 46°
2026-05-06 21:52 34.92177 -82.11974 36905 ft 533 kts 46°
2026-05-06 21:52 34.96469 -82.04590 36990 ft 533 kts 46°
2026-05-06 21:53 35.00842 -81.97301 36985 ft 528 kts 39°
2026-05-06 21:53 35.03402 -81.94160 36988 ft 517 kts 29°
2026-05-06 21:53 35.06183 -81.91570 36988 ft 503 kts 21°
2026-05-06 21:54 35.09178 -81.89479 36983 ft 489 kts 12°
2026-05-06 21:54 35.12253 -81.87778 36983 ft 486 kts 11°
2026-05-06 21:54 35.18424 -81.84381 36981 ft 487 kts 11°
2026-05-06 21:55 35.24591 -81.80949 37010 ft 487 kts 11°
2026-05-06 21:55 35.30772 -81.77500 36988 ft 489 kts 11°
2026-05-06 21:56 35.36968 -81.74048 36987 ft 490 kts 11°
2026-05-06 21:56 35.43127 -81.70612 36993 ft 490 kts 11°
2026-05-06 21:57 35.49339 -81.67138 36986 ft 491 kts 11°
2026-05-06 21:57 35.55559 -81.63663 36994 ft 491 kts 11°
2026-05-06 21:58 35.61771 -81.60185 37018 ft 490 kts 11°
2026-05-06 21:58 35.67936 -81.56727 37033 ft 490 kts 11°
2026-05-06 21:59 35.74132 -81.53239 36991 ft 489 kts 11°
2026-05-06 21:59 35.80314 -81.49749 36990 ft 489 kts 11°
2026-05-06 22:00 35.86508 -81.46250 36963 ft 489 kts 11°
2026-05-06 22:00 35.92644 -81.42787 36965 ft 489 kts 11°
2026-05-06 22:01 35.98828 -81.39288 36973 ft 489 kts 11°
2026-05-06 22:01 36.05022 -81.35777 36977 ft 490 kts 11°
2026-05-06 22:02 36.11222 -81.32254 36986 ft 491 kts 11°
2026-05-06 22:02 36.17387 -81.28741 37004 ft 491 kts 11°
2026-05-06 22:03 36.23595 -81.25196 37049 ft 492 kts 11°
2026-05-06 22:03 36.29813 -81.21648 37043 ft 492 kts 11°
2026-05-06 22:04 36.36028 -81.18094 37026 ft 492 kts 11°
2026-05-06 22:04 36.42241 -81.14530 37040 ft 493 kts 12°
2026-05-06 22:05 36.48373 -81.10745 37000 ft 499 kts 14°
2026-05-06 22:05 36.54521 -81.06679 36976 ft 501 kts 15°
2026-05-06 22:06 36.60677 -81.02602 36981 ft 501 kts 14°
2026-05-06 22:06 36.66855 -80.98591 37005 ft 501 kts 14°
2026-05-06 22:07 36.73001 -80.94635 37005 ft 500 kts 13°
2026-05-06 22:07 36.79187 -80.90636 37001 ft 501 kts 14°
2026-05-06 22:08 36.85363 -80.86601 37014 ft 501 kts 14°
2026-05-06 22:08 36.91528 -80.82567 37023 ft 501 kts 13°
2026-05-06 22:09 36.97659 -80.78556 36982 ft 500 kts 13°
2026-05-06 22:09 37.03829 -80.74525 36986 ft 500 kts 13°
2026-05-06 22:10 37.10049 -80.70889 36985 ft 478 kts
2026-05-06 22:10 37.16376 -80.68733 36975 ft 470 kts 359°
2026-05-06 22:11 37.22659 -80.66637 36974 ft 471 kts 359°
2026-05-06 22:11 37.28985 -80.64511 36922 ft 471 kts 359°
2026-05-06 22:12 37.35322 -80.62370 36962 ft 472 kts 359°
2026-05-06 22:12 37.41667 -80.60230 36947 ft 472 kts 358°
2026-05-06 22:13 37.48018 -80.58095 36937 ft 473 kts 358°
2026-05-06 22:13 37.54372 -80.55952 36934 ft 473 kts 359°
2026-05-06 22:14 37.60685 -80.53804 36944 ft 474 kts 359°
2026-05-06 22:14 37.67046 -80.51637 36947 ft 473 kts 359°
2026-05-06 22:15 37.73398 -80.49481 36964 ft 472 kts 359°
2026-05-06 22:15 37.79702 -80.47331 36982 ft 472 kts 359°
2026-05-06 22:16 37.86051 -80.45159 36959 ft 473 kts 359°
2026-05-06 22:16 37.92399 -80.42985 36950 ft 473 kts 359°
2026-05-06 22:17 37.98743 -80.40819 36926 ft 473 kts 359°
2026-05-06 22:17 38.05063 -80.38650 36935 ft 474 kts 359°
2026-05-06 22:18 38.11429 -80.36458 36940 ft 474 kts 359°
2026-05-06 22:18 38.17803 -80.34265 36932 ft 474 kts 359°
2026-05-06 22:19 38.24174 -80.32070 36940 ft 475 kts 359°
2026-05-06 22:19 38.30561 -80.29861 36964 ft 475 kts 359°
2026-05-06 22:20 38.36896 -80.27661 36968 ft 476 kts 359°
2026-05-06 22:20 38.43282 -80.25439 36960 ft 475 kts 359°
2026-05-06 22:21 38.49666 -80.23217 36985 ft 475 kts 359°
2026-05-06 22:21 38.56038 -80.20994 36945 ft 474 kts 359°
2026-05-06 22:22 38.62354 -80.18798 36954 ft 474 kts 359°
2026-05-06 22:22 38.68717 -80.16575 36926 ft 474 kts 359°
2026-05-06 22:23 38.75083 -80.14348 36981 ft 474 kts 359°
2026-05-06 22:23 38.81453 -80.12111 36982 ft 474 kts 359°
2026-05-06 22:24 38.87774 -80.09893 36980 ft 474 kts 359°
2026-05-06 22:24 38.94084 -80.08332 37023 ft 444 kts 345°
2026-05-06 22:25 39.00167 -80.08213 36959 ft 436 kts 343°
2026-05-06 22:25 39.06240 -80.08149 36957 ft 437 kts 343°
2026-05-06 22:26 39.12286 -80.08073 36958 ft 438 kts 343°
2026-05-06 22:26 39.18381 -80.07988 37005 ft 438 kts 343°
2026-05-06 22:27 39.24476 -80.07891 36997 ft 438 kts 343°
2026-05-06 22:27 39.30570 -80.07784 36991 ft 438 kts 343°
2026-05-06 22:28 39.36656 -80.07686 36984 ft 437 kts 343°
2026-05-06 22:28 39.42694 -80.07604 36965 ft 436 kts 342°
2026-05-06 22:29 39.48836 -80.07156 36958 ft 465 kts 355°
2026-05-06 22:29 39.52006 -80.05785 36966 ft 498 kts 11°
2026-05-06 22:29 39.55025 -80.03316 36964 ft 530 kts 27°
2026-05-06 22:30 39.57665 -79.99827 36966 ft 549 kts 38°
2026-05-06 22:30 39.60145 -79.96139 36996 ft 550 kts 38°
2026-05-06 22:30 39.65200 -79.88655 36972 ft 552 kts 37°
2026-05-06 22:31 39.70279 -79.81177 36971 ft 553 kts 37°
2026-05-06 22:31 39.75367 -79.73676 36959 ft 553 kts 38°
2026-05-06 22:32 39.80399 -79.66199 37041 ft 553 kts 38°
2026-05-06 22:32 39.85440 -79.58689 36947 ft 550 kts 38°
2026-05-06 22:33 39.90477 -79.51195 36951 ft 550 kts 38°
2026-05-06 22:33 39.95522 -79.43687 36953 ft 551 kts 38°
2026-05-06 22:34 40.00521 -79.36205 36965 ft 551 kts 38°
2026-05-06 22:34 40.05535 -79.28666 36935 ft 549 kts 38°
2026-05-06 22:35 40.10544 -79.21128 36942 ft 549 kts 38°
2026-05-06 22:35 40.15557 -79.13574 36945 ft 550 kts 38°
2026-05-06 22:36 40.20600 -79.06081 36932 ft 549 kts 37°
2026-05-06 22:36 40.25647 -78.98673 36911 ft 549 kts 38°
2026-05-06 22:37 40.30719 -78.91194 36935 ft 549 kts 38°
2026-05-06 22:37 40.35770 -78.83670 36950 ft 550 kts 38°
2026-05-06 22:38 40.40803 -78.76134 36894 ft 546 kts 37°
2026-05-06 22:38 40.45762 -78.68693 36880 ft 546 kts 37°
2026-05-06 22:39 40.50779 -78.61189 36920 ft 548 kts 37°
2026-05-06 22:39 40.55807 -78.53653 36938 ft 548 kts 37°
2026-05-06 22:40 40.60815 -78.46111 36908 ft 546 kts 38°
2026-05-06 22:40 40.65804 -78.38575 36897 ft 546 kts 38°
2026-05-06 22:41 40.73261 -78.27291 36909 ft 547 kts 38°
2026-05-06 22:42 40.78244 -78.19722 36892 ft 546 kts 38°
2026-05-06 22:42 40.83204 -78.12149 36894 ft 545 kts 38°
2026-05-06 22:43 40.88132 -78.04614 36898 ft 546 kts 38°
2026-05-06 22:43 40.90715 -78.00997 36900 ft 534 kts 30°
2026-05-06 22:43 40.93553 -77.97954 36947 ft 517 kts 21°
2026-05-06 22:43 40.96566 -77.95482 36906 ft 505 kts 15°
2026-05-06 22:44 40.99617 -77.93163 36907 ft 506 kts 15°
2026-05-06 22:44 41.05709 -77.88488 36910 ft 506 kts 16°
2026-05-06 22:45 41.11803 -77.83799 36909 ft 506 kts 16°
2026-05-06 22:45 41.17849 -77.79133 36889 ft 505 kts 16°
2026-05-06 22:46 41.23923 -77.74442 36895 ft 505 kts 16°
2026-05-06 22:46 41.29998 -77.69741 36908 ft 506 kts 16°
2026-05-06 22:47 41.36080 -77.65008 36938 ft 507 kts 17°
2026-05-06 22:47 41.42133 -77.60303 36931 ft 507 kts 17°
2026-05-06 22:48 41.48232 -77.55560 36912 ft 508 kts 17°
2026-05-06 22:48 41.54328 -77.50795 36937 ft 508 kts 17°
2026-05-06 22:49 41.60353 -77.46063 36926 ft 499 kts 17°
2026-05-06 22:49 41.66308 -77.41377 36929 ft 496 kts 17°
2026-05-06 22:50 41.72253 -77.36715 36980 ft 496 kts 17°
2026-05-06 22:50 41.78208 -77.32043 36927 ft 497 kts 17°
2026-05-06 22:51 41.84167 -77.27338 36928 ft 497 kts 17°
2026-05-06 22:51 41.90080 -77.22659 36930 ft 497 kts 17°
2026-05-06 22:52 41.96021 -77.17942 36930 ft 497 kts 18°
2026-05-06 22:52 42.01969 -77.13213 36939 ft 497 kts 18°
2026-05-06 22:53 42.07919 -77.08485 36924 ft 496 kts 18°
2026-05-06 22:53 42.13821 -77.03771 36919 ft 496 kts 18°
2026-05-06 22:54 42.19759 -76.99010 36932 ft 497 kts 18°
2026-05-06 22:54 42.25696 -76.94254 36932 ft 496 kts 18°
2026-05-06 22:55 42.31638 -76.89481 36938 ft 497 kts 18°
2026-05-06 22:55 42.37537 -76.84729 36921 ft 497 kts 18°
2026-05-06 22:56 42.43478 -76.79938 36924 ft 498 kts 18°
2026-05-06 22:56 42.49425 -76.75122 36947 ft 498 kts 19°
2026-05-06 22:57 42.55378 -76.70291 36933 ft 499 kts 19°
2026-05-06 22:57 42.61296 -76.65483 36928 ft 499 kts 19°
2026-05-06 22:58 42.67260 -76.60633 36920 ft 504 kts 20°
2026-05-06 22:58 42.73262 -76.55729 36921 ft 499 kts 20°
2026-05-06 22:59 42.79181 -76.50857 36925 ft 494 kts 20°
2026-05-06 22:59 42.84992 -76.46086 36930 ft 489 kts 20°
2026-05-06 23:00 42.90809 -76.41320 36919 ft 488 kts 20°
2026-05-06 23:00 42.96625 -76.36545 36932 ft 488 kts 20°
2026-05-06 23:01 43.02438 -76.31750 36964 ft 489 kts 21°
2026-05-06 23:01 43.08233 -76.26948 36922 ft 486 kts 21°
2026-05-06 23:02 43.14020 -76.22363 36904 ft 477 kts 13°
2026-05-06 23:02 43.17069 -76.20739 36904 ft 464 kts
2026-05-06 23:02 43.20159 -76.19731 36943 ft 450 kts 356°
2026-05-06 23:03 43.26329 -76.18652 36924 ft 447 kts 355°
2026-05-06 23:03 43.32501 -76.17585 36917 ft 448 kts 355°
2026-05-06 23:04 43.38689 -76.16495 36956 ft 448 kts 356°
2026-05-06 23:04 43.44838 -76.15406 36934 ft 449 kts 355°
2026-05-06 23:05 43.51036 -76.14311 36895 ft 449 kts 355°
2026-05-06 23:05 43.57235 -76.13223 36910 ft 449 kts 355°
2026-05-06 23:06 43.63438 -76.12123 36953 ft 450 kts 356°
2026-05-06 23:06 43.69649 -76.11017 36942 ft 450 kts 356°
2026-05-06 23:06 43.72723 -76.10469 36648 ft 453 kts 356°
2026-05-06 23:07 43.75827 -76.09914 36374 ft 450 kts 356°
2026-05-06 23:07 43.78933 -76.09358 36152 ft 451 kts 356°
2026-05-06 23:07 43.82047 -76.08802 35905 ft 451 kts 356°
2026-05-06 23:07 43.85164 -76.08244 35650 ft 452 kts 357°
2026-05-06 23:08 43.88284 -76.07688 35400 ft 452 kts 356°
2026-05-06 23:08 43.91406 -76.07098 35171 ft 456 kts
2026-05-06 23:08 43.94522 -76.06017 34934 ft 468 kts
2026-05-06 23:08 43.97558 -76.04255 34693 ft 479 kts 19°
2026-05-06 23:09 44.00445 -76.01864 34471 ft 486 kts 25°
2026-05-06 23:09 44.03292 -75.99330 34236 ft 486 kts 25°
2026-05-06 23:09 44.06103 -75.96838 34009 ft 486 kts 25°
2026-05-06 23:09 44.08955 -75.94314 33757 ft 486 kts 25°
2026-05-06 23:10 44.11802 -75.91797 33461 ft 486 kts 25°
2026-05-06 23:10 44.14651 -75.89279 33232 ft 484 kts 26°
2026-05-06 23:10 44.17494 -75.86763 32959 ft 484 kts 27°
2026-05-06 23:10 44.20330 -75.84246 32696 ft 483 kts 27°
2026-05-06 23:11 44.23168 -75.81722 32430 ft 483 kts 27°
2026-05-06 23:11 44.26036 -75.79176 32177 ft 497 kts 28°
2026-05-06 23:11 44.28975 -75.76567 31914 ft 503 kts 28°
2026-05-06 23:11 44.31930 -75.73935 31679 ft 504 kts 29°
2026-05-06 23:12 44.34887 -75.71288 31420 ft 505 kts 30°
2026-05-06 23:12 44.37804 -75.68674 30482 ft 509 kts 30°
2026-05-06 23:12 44.40814 -75.65977 29154 ft 517 kts 31°
2026-05-06 23:12 44.43840 -75.63261 28047 ft 518 kts 31°
2026-05-06 23:13 44.46878 -75.60530 27196 ft 515 kts 30°
2026-05-06 23:13 44.49873 -75.57835 26902 ft 513 kts 31°
2026-05-06 23:13 44.52888 -75.55120 26637 ft 516 kts 31°
2026-05-06 23:13 44.55902 -75.52400 26428 ft 515 kts 31°
2026-05-06 23:14 44.57901 -75.50595 26229 ft 515 kts 31°
2026-05-06 23:14 44.60907 -75.47880 25839 ft 513 kts 31°
2026-05-06 23:14 44.63894 -75.45177 25483 ft 507 kts 31°
2026-05-06 23:14 44.67732 -75.41696 25282 ft 484 kts 31°
2026-05-06 23:15 44.70497 -75.39132 25158 ft 469 kts 34°
2026-05-06 23:15 44.72997 -75.36267 24837 ft 460 kts 42°
2026-05-06 23:15 44.74503 -75.34112 24527 ft 457 kts 48°
2026-05-06 23:15 44.77247 -75.29669 23855 ft 452 kts 49°
2026-05-06 23:16 44.78612 -75.27457 23519 ft 450 kts 49°
2026-05-06 23:16 44.80661 -75.24142 22935 ft 447 kts 49°
2026-05-06 23:16 44.82695 -75.20857 22379 ft 443 kts 48°
2026-05-06 23:16 44.84717 -75.17597 21798 ft 440 kts 48°
2026-05-06 23:17 44.86720 -75.14359 21272 ft 436 kts 48°
2026-05-06 23:17 44.88705 -75.11139 20736 ft 433 kts 48°
2026-05-06 23:17 44.90671 -75.07942 20239 ft 430 kts 48°
2026-05-06 23:17 44.92620 -75.04764 19732 ft 427 kts 48°
2026-05-06 23:18 44.94527 -75.01651 19250 ft 424 kts 48°
2026-05-06 23:18 44.96449 -74.98515 18778 ft 421 kts 48°
2026-05-06 23:18 44.98284 -74.95313 18319 ft 419 kts 54°
2026-05-06 23:18 44.99822 -74.91838 17778 ft 416 kts 62°
2026-05-06 23:19 45.01218 -74.88306 17494 ft 406 kts 61°
2026-05-06 23:19 45.02589 -74.84863 17139 ft 399 kts 61°
2026-05-06 23:19 45.03944 -74.81473 16702 ft 395 kts 61°
2026-05-06 23:19 45.05291 -74.78103 16257 ft 392 kts 60°
2026-05-06 23:20 45.06627 -74.74749 15824 ft 389 kts 60°
2026-05-06 23:20 45.07926 -74.71477 15408 ft 386 kts 60°
2026-05-06 23:20 45.09234 -74.68174 14996 ft 383 kts 60°
2026-05-06 23:20 45.10531 -74.64893 14595 ft 380 kts 60°
2026-05-06 23:21 45.11819 -74.61635 14171 ft 378 kts 59°
2026-05-06 23:21 45.13139 -74.58434 13828 ft 374 kts 58°
2026-05-06 23:21 45.14482 -74.55343 13701 ft 363 kts 57°
2026-05-06 23:21 45.15807 -74.52368 13542 ft 352 kts 56°
2026-05-06 23:22 45.17111 -74.49459 13222 ft 347 kts 56°
2026-05-06 23:22 45.18392 -74.46585 12880 ft 344 kts 56°
2026-05-06 23:22 45.19642 -74.43754 12527 ft 341 kts 57°
2026-05-06 23:22 45.20885 -74.40915 12164 ft 338 kts 57°
2026-05-06 23:23 45.22101 -74.38114 11976 ft 329 kts 57°
2026-05-06 23:23 45.23286 -74.35367 11688 ft 325 kts 57°
2026-05-06 23:23 45.24458 -74.32646 11371 ft 321 kts 57°
2026-05-06 23:23 45.25604 -74.29982 11204 ft 312 kts 57°
2026-05-06 23:24 45.26727 -74.27373 10934 ft 308 kts 57°
2026-05-06 23:24 45.27827 -74.24824 10632 ft 305 kts 57°
2026-05-06 23:24 45.28932 -74.22263 10318 ft 303 kts 57°
2026-05-06 23:24 45.30027 -74.19720 9993 ft 301 kts 57°
2026-05-06 23:25 45.31114 -74.17196 9666 ft 298 kts 57°
2026-05-06 23:25 45.32188 -74.14691 9324 ft 296 kts 57°
2026-05-06 23:25 45.33249 -74.12211 9003 ft 292 kts 57°
2026-05-06 23:25 45.34288 -74.09779 8807 ft 283 kts 57°
2026-05-06 23:26 45.35295 -74.07426 8594 ft 275 kts 56°
2026-05-06 23:26 45.36428 -74.05277 8300 ft 269 kts 45°
2026-05-06 23:26 45.37740 -74.03461 8009 ft 264 kts 38°
2026-05-06 23:26 45.39093 -74.01720 7720 ft 261 kts 39°
2026-05-06 23:27 45.40424 -73.99992 7449 ft 257 kts 39°
2026-05-06 23:27 45.41734 -73.98285 7174 ft 254 kts 39°
2026-05-06 23:27 45.43014 -73.96616 7004 ft 245 kts 39°
2026-05-06 23:27 45.44250 -73.95002 7006 ft 240 kts 39°
2026-05-06 23:28 45.45481 -73.93400 7011 ft 240 kts 39°
2026-05-06 23:28 45.46729 -73.91879 7007 ft 237 kts 28°
2026-05-06 23:28 45.48217 -73.90969 7009 ft 232 kts 13°
2026-05-06 23:28 45.49762 -73.90308 7009 ft 232 kts 12°
2026-05-06 23:29 45.51309 -73.89678 6884 ft 230 kts 12°
2026-05-06 23:29 45.52848 -73.89061 6626 ft 229 kts 12°
2026-05-06 23:29 45.54372 -73.88459 6380 ft 226 kts 12°
2026-05-06 23:29 45.55880 -73.87872 6112 ft 224 kts 11°
2026-05-06 23:30 45.57338 -73.87143 5814 ft 226 kts 27°
2026-05-06 23:30 45.58458 -73.85576 5505 ft 230 kts 57°
2026-05-06 23:30 45.58924 -73.83389 5207 ft 234 kts 81°
2026-05-06 23:30 45.59124 -73.81081 4897 ft 234 kts 81°
2026-05-06 23:31 45.59323 -73.78782 4636 ft 233 kts 81°
2026-05-06 23:31 45.59629 -73.76530 4353 ft 230 kts 68°
2026-05-06 23:31 45.60288 -73.74512 4067 ft 226 kts 54°
2026-05-06 23:31 45.61253 -73.72765 3773 ft 223 kts 41°
2026-05-06 23:32 45.62389 -73.71271 3496 ft 222 kts 39°
2026-05-06 23:32 45.63523 -73.69781 3215 ft 222 kts 39°
2026-05-06 23:32 45.64653 -73.68289 3030 ft 219 kts 39°
2026-05-06 23:32 45.65780 -73.66805 3011 ft 222 kts 39°
2026-05-06 23:33 45.66896 -73.65271 3008 ft 224 kts 49°
2026-05-06 23:33 45.67562 -73.63240 3015 ft 229 kts 72°
2026-05-06 23:33 45.67745 -73.60983 3007 ft 231 kts 99°
2026-05-06 23:33 45.67097 -73.58914 3014 ft 230 kts 129°
2026-05-06 23:34 45.66032 -73.57246 3014 ft 230 kts 136°
2026-05-06 23:34 45.64931 -73.55634 3007 ft 223 kts 137°
2026-05-06 23:34 45.63646 -73.54518 3011 ft 215 kts 174°
2026-05-06 23:34 45.62254 -73.54894 3008 ft 203 kts 219°
2026-05-06 23:35 45.61346 -73.56346 3016 ft 193 kts 236°
2026-05-06 23:35 45.60410 -73.57715 3010 ft 190 kts 227°
2026-05-06 23:35 45.59468 -73.58949 3009 ft 178 kts 226°
2026-05-06 23:35 45.58592 -73.60098 2892 ft 168 kts 227°
2026-05-06 23:36 45.57750 -73.61205 2698 ft 161 kts 227°
2026-05-06 23:36 45.56932 -73.62283 2491 ft 159 kts 227°
2026-05-06 23:36 45.56123 -73.63349 2279 ft 157 kts 227°
2026-05-06 23:36 45.55325 -73.64399 2062 ft 156 kts 226°
2026-05-06 23:37 45.54541 -73.65429 1845 ft 149 kts 225°
2026-05-06 23:37 45.53805 -73.66397 1666 ft 141 kts 225°
2026-05-06 23:37 45.53102 -73.67321 1462 ft 136 kts 225°
2026-05-06 23:37 45.52422 -73.68214 1280 ft 134 kts 225°
2026-05-06 23:38 45.51737 -73.69115 1087 ft 134 kts 224°
2026-05-06 23:38 45.51053 -73.70012 893 ft 133 kts 223°
2026-05-06 23:38 45.50375 -73.70903 696 ft 131 kts 223°
2026-05-06 23:38 45.49699 -73.71790 527 ft 134 kts 222°
2026-05-06 23:39 45.49001 -73.72696 348 ft 136 kts 221°
2026-05-06 23:39 45.48321 -73.73598 163 ft 131 kts 224°
2026-05-06 23:39 45.47695 -73.74427 111 ft 106 kts 223°
2026-05-06 23:39 45.47279 -73.74971 114 ft 57 kts 223°
2026-05-06 23:40 45.47025 -73.75300 109 ft 48 kts 222°
2026-05-06 23:40 45.46800 -73.75552 108 ft 27 kts 194°
2026-05-06 23:40 45.46633 -73.75624 106 ft 25 kts 193°
2026-05-06 23:40 45.46492 -73.75669 105 ft 11 kts 193°
2026-05-06 23:41 45.46474 -73.75675 105 ft 0 kts 193°
2026-05-06 23:41 45.46471 -73.75676 105 ft 1 kts 193°
2026-05-06 23:41 45.46464 -73.75679 105 ft 1 kts 193°
2026-05-06 23:41 45.46417 -73.75692 104 ft 16 kts 191°
2026-05-06 23:42 45.46332 -73.75716 104 ft 3 kts 191°
2026-05-06 23:42 45.46309 -73.75722 104 ft 6 kts 187°
2026-05-06 23:42 45.46212 -73.75725 102 ft 16 kts 179°
2026-05-06 23:42 45.46129 -73.75791 102 ft 15 kts 257°
2026-05-06 23:43 45.46124 -73.75933 102 ft 13 kts 263°
2026-05-06 23:43 45.46074 -73.75984 104 ft 8 kts 215°
2026-05-06 23:43 45.46000 -73.76057 104 ft 16 kts 197°
2026-05-06 23:43 45.45886 -73.76052 105 ft 17 kts 170°
2026-05-06 23:44 45.45773 -73.76015 105 ft 17 kts 156°
2026-05-06 23:44 45.45700 -73.75901 105 ft 15 kts 147°
2026-05-06 23:44 45.45646 -73.75804 104 ft 4 kts 125°
2026-05-06 23:44 45.45645 -73.75802 104 ft 0 kts 125°
2026-05-06 23:45 45.45642 -73.75796 104 ft 2 kts 125°
2026-05-06 23:45 45.45617 -73.75740 104 ft 8 kts 111°
2026-05-06 23:45 45.45623 -73.75669 105 ft 7 kts 76°
2026-05-06 23:46 45.45622 -73.75613 103 ft 4 kts 129°
2026-05-06 23:46 45.45596 -73.75595 105 ft 4 kts 153°
2026-05-06 23:46 45.45578 -73.75582 105 ft 0 kts 154°